Le nostre stazioni meteo in Italia

Pubblicità
Il mio iltempo24.it
Logan Botanic Garden, Gran Bretagna (99193): Temperatura & dewpoint: 22.06.2017 23:00:00 - 28.06.2017 23:00:00 (BST)Logan Botanic Garden, Gran Bretagna (99193): Temperatura -20cm: 22.06.2017 23:00:00 - 28.06.2017 23:00:00 (BST)Logan Botanic Garden, Gran Bretagna (99193): visibility: 22.06.2017 23:00:00 - 28.06.2017 23:00:00 (BST)Logan Botanic Garden, Gran Bretagna (99193): precipitazioni: 22.06.2017 23:00:00 - 28.06.2017 23:00:00 (BST)
Data & Tempo tt [°C] td [°C] tt -20cm [°C] vv [km] rr [mm]
28.06.2017 23:00:00 11,2 6,8 - - 0,0
28.06.2017 22:00:00 12,2 6,9 - - 0,0
28.06.2017 21:00:00 13,0 8,1 - - 0,0
28.06.2017 20:00:00 14,4 8,9 - - 0,0
28.06.2017 19:00:00 14,8 9,7 - - 0,0
28.06.2017 18:00:00 14,7 9,9 - - 0,0
28.06.2017 17:00:00 15,3 10,0 - - 0,0
28.06.2017 16:00:00 16,9 10,9 - - 0,0
28.06.2017 15:00:00 17,2 11,6 - - 0,0
28.06.2017 14:00:00 15,4 10,3 - - 0,0
28.06.2017 13:00:00 15,4 10,2 - - 0,0
28.06.2017 12:00:00 16,6 12,7 - - 0,0
28.06.2017 11:00:00 15,0 12,1 - - 0,0
28.06.2017 10:00:00 13,8 11,0 15,7 2,1 0,0
28.06.2017 09:00:00 13,1 11,1 - - 0,0
28.06.2017 08:00:00 13,0 10,8 - - 0,0
28.06.2017 07:00:00 12,3 10,6 - - 0,0
28.06.2017 06:00:00 12,2 10,7 - - 0,0
28.06.2017 05:00:00 12,5 11,4 - - 0,0
28.06.2017 04:00:00 12,5 11,7 - - 0,0
28.06.2017 03:00:00 12,7 12,0 - - 0,0
28.06.2017 02:00:00 13,0 12,5 - - 0,0
28.06.2017 01:00:00 13,2 12,7 - - 0,0
28.06.2017 00:00:00 13,4 13,0 - - 0,0
27.06.2017 23:00:00 13,6 13,3 - - 0,4
27.06.2017 22:00:00 13,7 13,3 - - 0,2
27.06.2017 21:00:00 13,8 13,4 - - 0,0
27.06.2017 20:00:00 13,9 13,6 - - 0,0
27.06.2017 19:00:00 13,7 13,4 - - 0,0
27.06.2017 18:00:00 13,4 13,2 - - 0,6
27.06.2017 17:00:00 13,2 13,0 - - 0,4
27.06.2017 16:00:00 13,2 13,0 - - 0,4
27.06.2017 15:00:00 13,1 12,9 - - 0,4
27.06.2017 14:00:00 13,4 13,1 - - 0,0
27.06.2017 13:00:00 13,4 13,1 - - 0,0
27.06.2017 12:00:00 13,3 13,0 - - 0,4
27.06.2017 11:00:00 13,3 12,9 - - 0,2
27.06.2017 10:00:00 13,2 12,8 16,0 - 0,4
27.06.2017 09:00:00 13,1 12,7 - - 0,6
27.06.2017 08:00:00 13,0 12,6 - - 1,4
27.06.2017 07:00:00 12,8 12,4 - - 1,8
27.06.2017 06:00:00 12,5 12,0 - - 0,8
27.06.2017 05:00:00 12,6 12,3 - - 1,8
27.06.2017 04:00:00 12,0 11,7 - - 2,4
27.06.2017 03:00:00 11,2 10,8 - - 1,8
27.06.2017 02:00:00 10,3 9,4 - - 1,0
27.06.2017 01:00:00 10,2 8,4 - - 0,4
27.06.2017 00:00:00 10,4 7,9 - - 0,4
26.06.2017 23:00:00 10,9 8,2 - - 0,4
26.06.2017 22:00:00 11,9 10,2 - - 0,2
26.06.2017 21:00:00 12,3 9,8 - - 0,2
26.06.2017 20:00:00 12,5 8,8 - - 0,0
26.06.2017 19:00:00 13,2 7,9 - - 0,0
26.06.2017 18:00:00 13,7 9,4 - - 0,0
26.06.2017 17:00:00 13,3 8,7 - - 0,0
26.06.2017 16:00:00 13,9 8,1 - - 0,0
26.06.2017 15:00:00 14,0 9,3 - - 0,0
26.06.2017 14:00:00 15,2 7,8 - - 0,0
26.06.2017 13:00:00 15,0 9,9 - - 0,0
26.06.2017 12:00:00 14,4 8,6 - - 0,0
26.06.2017 11:00:00 13,5 8,4 - - 0,0
26.06.2017 10:00:00 13,2 9,0 16,0 4,9 0,0
26.06.2017 09:00:00 12,5 8,8 - - 0,0
26.06.2017 08:00:00 12,2 8,8 - - 0,0
26.06.2017 07:00:00 11,7 9,0 - - 0,0
26.06.2017 06:00:00 10,1 8,4 - - 0,0
26.06.2017 05:00:00 8,9 7,3 - - 0,0
26.06.2017 04:00:00 10,4 8,2 - - 0,0
26.06.2017 03:00:00 10,5 8,8 - - 0,0
26.06.2017 02:00:00 10,6 8,7 - - 0,0
26.06.2017 01:00:00 11,4 8,3 - - 0,0
26.06.2017 00:00:00 10,9 8,3 - - 0,0
25.06.2017 23:00:00 10,5 7,6 - - 0,0
25.06.2017 22:00:00 11,0 7,6 - - 0,0
25.06.2017 21:00:00 12,3 7,4 - - 0,0
25.06.2017 20:00:00 12,9 7,0 - - 0,0
25.06.2017 19:00:00 13,8 8,5 - - 0,0
25.06.2017 18:00:00 13,7 8,7 - - 0,0
25.06.2017 17:00:00 14,5 8,1 - - 0,0
25.06.2017 16:00:00 13,5 7,5 - - 0,0
25.06.2017 15:00:00 14,6 8,8 - - 0,0
25.06.2017 14:00:00 14,2 8,4 - - 0,0
25.06.2017 13:00:00 14,8 8,6 - - 0,0
25.06.2017 12:00:00 14,1 7,3 - - 0,0
25.06.2017 11:00:00 14,0 7,5 - - 0,0
25.06.2017 10:00:00 13,6 8,3 16,0 50 0,0
25.06.2017 09:00:00 13,6 8,1 - - 0,0
25.06.2017 08:00:00 13,0 8,4 - - 0,0
25.06.2017 07:00:00 11,9 8,2 - - 0,0
25.06.2017 06:00:00 11,4 8,7 - - 0,0
25.06.2017 05:00:00 11,2 8,4 - - 0,0
25.06.2017 04:00:00 11,5 9,3 - - 0,0
25.06.2017 03:00:00 11,6 9,2 - - 0,0
25.06.2017 02:00:00 11,4 9,4 - - 0,0
25.06.2017 01:00:00 12,1 9,4 - - 0,0
25.06.2017 00:00:00 12,2 8,8 - - 0,0
24.06.2017 23:00:00 12,5 8,7 - - 0,0
24.06.2017 22:00:00 12,8 8,6 - - 0,0
24.06.2017 21:00:00 13,1 9,0 - - 0,0
24.06.2017 20:00:00 13,5 9,1 - - 0,0
24.06.2017 19:00:00 14,1 9,1 - - 0,0
24.06.2017 18:00:00 14,4 9,3 - - 0,0
24.06.2017 17:00:00 15,5 8,5 - - 0,0
24.06.2017 16:00:00 15,7 8,6 - - 0,0
24.06.2017 15:00:00 16,1 8,8 - - 0,0
24.06.2017 14:00:00 16,6 9,0 - - 0,0
24.06.2017 13:00:00 15,8 9,0 - - 0,0
24.06.2017 12:00:00 15,3 9,9 - - 0,0
24.06.2017 11:00:00 14,8 11,4 - - 0,0
24.06.2017 10:00:00 13,2 11,3 16,0 16 0,0
24.06.2017 09:00:00 12,3 11,0 - - 0,0
24.06.2017 08:00:00 11,8 10,2 - - 0,0
24.06.2017 07:00:00 11,6 9,6 - - 0,0
24.06.2017 06:00:00 11,8 9,5 - - 0,0
24.06.2017 05:00:00 11,7 9,5 - - 0,0
24.06.2017 04:00:00 11,7 8,2 - - 0,0
24.06.2017 03:00:00 11,6 7,6 - - 0,0
24.06.2017 02:00:00 12,0 8,6 - - 0,0
24.06.2017 01:00:00 11,0 9,5 - - 0,0
24.06.2017 00:00:00 9,7 8,0 - - 0,0
23.06.2017 23:00:00 11,4 8,4 - - 0,0
23.06.2017 22:00:00 11,5 8,7 - 10 0,0
23.06.2017 21:00:00 13,2 9,1 - - 0,0
23.06.2017 20:00:00 14,2 9,3 - - 0,0
23.06.2017 19:00:00 14,7 11,4 - - 0,0
23.06.2017 18:00:00 14,6 11,3 - - 0,0
23.06.2017 17:00:00 15,2 11,9 - - 0,0
23.06.2017 16:00:00 15,3 12,9 - - 0,0
23.06.2017 15:00:00 14,7 13,0 - - 0,0
23.06.2017 14:00:00 14,0 12,9 - - 0,0
23.06.2017 13:00:00 13,6 12,9 - - 0,2
23.06.2017 12:00:00 13,7 13,0 - - 0,0
23.06.2017 11:00:00 14,4 13,5 - - 0,0
23.06.2017 10:00:00 13,6 12,9 16,5 2,1 0,0
23.06.2017 09:00:00 13,4 12,7 - - 0,0
23.06.2017 08:00:00 13,2 12,2 - - 0,0
23.06.2017 07:00:00 13,0 12,2 - - 0,0
23.06.2017 06:00:00 12,6 12,0 - - 0,0
23.06.2017 05:00:00 12,5 11,8 - - 4,2
23.06.2017 04:00:00 12,7 11,7 - - 3,4
23.06.2017 03:00:00 12,9 11,7 - - 1,2
23.06.2017 02:00:00 12,8 11,6 - - 0,6
23.06.2017 01:00:00 13,0 11,1 - - 0,0
23.06.2017 00:00:00 13,3 10,9 - - 0,0
22.06.2017 23:00:00 13,3 10,8 - - 0,0

tt = Temperatura
td = dewpoint
tt -20cm = Temperatura -20cm
vv = visibility
rr = precipitazioni

Stazioni seguenti

WeatherPro
AMSI
MeteoEarth